Hourly Data Report for October 07, 2015

All times are specified in Local Standard Time (LST). Add 1 hour to adjust for Daylight Saving Time where and when it is observed.

BAKER LAKE A
NUNAVUT

64°17'56.000" N
96°04'40.000" W
18.60 m
2300503
71926
YBK

Download Data

Hourly Data (October 2015)
Hourly Data Report for October 7, 2015
Temp Definition
°C
Dew Point Temp Definition
°C
Rel Hum Definition
%
Wind Dir Definition
10's deg

Wind Spd Definition
km/h
Visibility Definition
km
Stn Press Definition
kPa
Hmdx Definition


Wind Chill Definition


Weather Definition


TIME
00:00 Legend Double Dagger -4.5 -6.3 87 31 21 24.1 101.05   -11 Mostly Cloudy
01:00 Legend Double Dagger -3.7 -5.6 87 33 24 24.1 101.08   -11 LegendNANA
02:00 Legend Double Dagger -4.4 -6.7 84 34 17 16.1 101.13   -10 Snow
03:00 Legend Double Dagger -5.8 -9.0 78 33 16 24.1 101.13   -12 Mainly Clear
04:00 Legend Double Dagger -6.2 -8.6 83 29 16 24.1 101.18   -12 LegendNANA
05:00 Legend Double Dagger -6.5 -8.8 84 30 12 24.1 101.20   -12 LegendNANA
06:00 Legend Double Dagger -6.6 -8.3 88 30 14 32.2 101.21   -12 Clear
07:00 Legend Double Dagger -6.8 -9.1 84 29 16 32.2 101.19   -13 LegendNANA
08:00 Legend Double Dagger -5.3 -8.7 77 28 12 32.2 101.18   -10 LegendNANA
09:00 Legend Double Dagger -4.7 -9.0 72 28 14 32.2 101.18   -10 Mainly Clear
10:00 Legend Double Dagger -3.8 -7.6 75 24 11 32.2 101.17   -8 LegendNANA
11:00 Legend Double Dagger -2.7 -9.9 58 26 12 32.2 101.14   -7 LegendNANA
12:00 Legend Double Dagger -2.7 -10.3 56 28 11 32.2 101.10   -7 Mainly Clear
13:00 Legend Double Dagger -2.5 -9.9 57 27 8 32.2 101.07   -6 LegendNANA
14:00 Legend Double Dagger -2.4 -9.8 57 25 5 32.2 101.04   -4 LegendNANA
15:00 Legend Double Dagger -2.6 -11.4 51 25 4 32.2 101.01   -4 Mostly Cloudy
16:00 Legend Double Dagger -2.8 -9.7 59 29 3 32.2 100.97   -4 LegendNANA
17:00 Legend Double Dagger -3.3 -8.0 70 24 5 24.1 100.93   -5 Snow
18:00 Legend Double Dagger -4.1 -6.1 86 35 6 6.4 100.93   -7 Snow
19:00 Legend Double Dagger -4.7 -6.5 87 35 11 8.1 100.92   -9 Snow
20:00 Legend Double Dagger -5.0 -7.1 85 35 15 8.1 100.89   -11 Snow
21:00 Legend Double Dagger -5.0 -7.3 84 34 13 9.7 100.87   -10 Snow
22:00 Legend Double Dagger -5.2 -7.3 85 34 16 9.7 100.88   -11 Snow
23:00 Legend Double Dagger -5.5 -8.8 78 33 13 9.7 100.88   -11 Snow

Notes on Data Quality.

Legend

  • E = Estimated
  • M = Missing
  • NA = Not Available
  • ‡ = Partner data that is not subject to review by the National Climate Archives
Date modified: